Helicity
171 128 140 128 88 223 390 425 469 383 458 289 268 233 194 191 222 219 217 185 163 121 83 111 161 160 109 77 50 23 8 19 33 34 20 8 20 38 71 59 53 -24 35 43
147 112 164 117 109 151 230 317 334 313 263 239 204 206 183 190 211 211 220 226 202 176 118 142 144 110 64 32 16 9 12 33 28 25 2 19 26 28 50 60 49 14 15 46
104 143 85 93 94 180 211 250 321 331 288 241 218 209 189 177 199 205 189 200 193 194 177 136 117 82 43 0 0 -5 4 10 10 4 -23 27 10 18 37 50 -3 -3 19 24
146 90 92 152 136 175 238 155 258 214 240 281 204 177 166 177 202 188 175 185 207 222 221 142 95 60 23 8 7 -8 -6 -6 2 -2 -18 48 33 2 -3 2 13 -8 5 35
133 185 97 64 135 178 215 135 151 241 182 184 197 197 153 167 204 184 192 211 237 242 232 207 115 63 25 6 13 8 -4 -9 1 -16 -13 45 51 33 8 -1 -5 -20 -10 36
181 154 117 137 155 167 207 117 126 209 155 199 271 249 206 154 170 195 201 209 227 245 248 269 189 90 38 24 32 12 -4 7 11 -5 16 54 54 37 38 29 15 3 22 39
242 195 115 116 200 150 177 171 203 204 183 264 288 247 188 180 186 185 183 193 221 253 293 271 244 178 104 36 47 16 -6 -10 14 23 38 38 42 33 20 34 44 41 39 51
169 185 59 228 264 216 160 167 183 214 228 272 220 202 231 232 209 206 206 208 211 238 252 254 244 227 198 154 63 19 -7 -6 12 11 50 42 43 25 14 25 50 61 67 65
242 202 222 271 231 197 220 196 201 256 241 258 245 237 268 252 241 219 210 193 181 208 215 213 220 249 249 172 107 51 11 20 21 21 21 28 41 28 13 26 38 37 40 57
221 144 204 308 249 202 229 222 198 246 294 314 300 288 287 265 266 255 220 198 186 189 182 181 199 210 191 177 128 84 71 65 50 49 29 9 4 13 25 28 36 35 31 35
238 116 161 131 176 183 151 135 177 224 298 336 324 318 316 292 291 269 234 193 186 177 157 154 165 160 159 153 129 116 110 108 105 71 43 26 13 2 6 19 22 23 25 34
197 157 141 102 87 103 107 126 157 231 255 295 360 347 336 301 287 283 248 216 191 162 155 135 143 137 115 96 94 86 77 75 73 65 39 28 23 18 19 39 23 -9 -29 -23
151 134 142 91 88 107 137 119 117 181 229 306 314 331 341 314 291 271 251 241 216 186 154 145 140 119 88 74 69 54 43 34 14 11 19 11 -5 9 17 39 55 13 -9 -20
121 116 11 126 100 104 128 110 121 145 191 261 308 322 329 317 302 287 278 253 221 195 171 160 152 124 88 68 54 34 29 17 15 -7 -15 -17 -16 -8 27 53 64 57 32 6
81 169 85 76 46 74 119 161 167 167 190 215 251 315 348 348 322 292 253 245 245 239 195 182 171 132 102 77 53 31 23 -2 -4 -4 -15 -17 3 18 42 60 64 50 56 35
158 147 96 65 63 68 129 146 165 154 187 201 250 312 346 337 309 289 278 288 315 276 252 234 194 164 147 113 84 47 25 15 12 -4 2 40 48 49 69 77 76 68 63 51
173 109 114 70 63 77 104 105 137 154 182 223 231 286 329 340 333 314 303 323 310 293 289 290 223 213 193 168 132 101 73 42 29 39 26 45 67 81 84 95 91 82 70 63
136 83 129 110 121 104 59 71 116 163 195 215 267 354 348 385 378 360 354 335 334 292 317 266 257 247 224 208 181 155 124 93 74 77 88 70 87 91 103 109 105 102 89 78
106 88 87 89 110 143 118 106 151 181 199 251 343 343 355 383 385 372 403 428 411 381 327 297 327 345 285 247 239 218 188 155 130 123 124 115 108 122 126 121 117 117 112 110
106 97 112 103 137 159 125 136 168 189 194 261 299 328 324 306 355 392 485 496 467 536 377 371 395 381 328 309 323 270 241 208 178 164 168 167 161 157 160 145 144 140 140 130
152 154 146 154 149 145 155 121 179 186 178 262 280 264 306 282 341 374 434 489 384 456 453 479 478 379 364 392 409 397 307 229 230 212 200 193 183 181 182 175 164 160 169 156
192 220 192 189 203 180 160 155 193 181 188 232 245 238 277 255 281 361 364 387 352 366 437 488 503 447 463 420 441 411 420 384 273 224 217 202 209 206 200 206 192 186 182 179
243 201 203 225 222 218 202 181 173 189 205 218 240 236 269 287 288 323 321 294 311 302 452 477 462 464 485 544 488 443 418 391 393 376 285 229 213 219 218 214 210 200 199 199
310 309 319 284 211 216 225 193 198 199 206 200 215 209 231 242 249 278 288 248 329 323 363 394 417 461 548 491 502 511 421 421 418 357 358 316 246 222 214 223 221 219 207 204
443 389 336 323 263 189 185 200 221 200 198 190 180 181 192 226 261 211 262 277 266 340 346 333 376 439 520 451 445 437 436 342 359 401 327 327 394 352 226 229 235 231 222 213
317 283 224 185 141 159 190 200 190 164 153 162 173 176 175 180 190 192 180 209 248 301 308 310 353 385 432 443 447 407 430 427 353 416 405 348 315 362 412 272 225 246 229 224
261 226 194 173 215 221 198 162 157 150 157 169 172 157 160 163 188 201 200 223 256 256 272 287 323 382 417 477 463 386 391 414 421 445 477 439 349 310 316 384 303 227 225 218
Wind_Speed
25 19 20 23 25 27 27 24 34 39 39 38 37 34 35 34 36 38 37 36 36 35 28 28 29 29 29 23 15 15 13 14 20 34 41 42 43 41 41 39 39 36 42 45
38 36 33 30 24 25 23 24 23 27 34 29 32 34 35 34 35 37 39 37 32 31 29 28 28 29 28 22 21 22 13 16 18 28 39 42 39 39 38 35 35 36 42 44
45 43 38 38 37 35 37 31 32 39 36 38 36 33 33 35 36 36 36 34 30 30 29 27 28 29 28 24 22 18 14 10 11 13 15 40 38 38 37 38 36 37 41 43
42 54 52 39 32 34 30 22 22 25 29 31 31 31 31 29 31 33 33 34 33 32 31 29 28 27 25 24 21 17 13 11 12 14 14 40 39 38 38 37 36 40 42 43
44 49 32 37 36 38 39 32 29 28 30 32 35 35 28 27 26 27 30 33 34 32 31 30 28 26 23 21 20 21 14 13 12 13 20 35 41 42 41 40 40 40 41 42
44 48 46 39 36 34 37 40 34 33 33 35 38 43 37 32 30 31 31 32 31 31 31 32 29 26 23 23 23 20 16 14 15 20 32 36 39 42 43 42 40 39 39 39
30 36 29 20 29 32 46 44 34 30 29 32 35 31 33 31 30 30 30 30 31 31 30 29 28 27 26 24 24 22 17 17 24 30 31 34 39 43 44 43 41 38 37 38
32 32 38 23 33 32 31 30 28 25 22 24 23 27 28 28 27 28 29 30 30 30 27 27 25 26 27 27 25 23 23 22 24 24 29 30 34 39 44 45 44 41 38 37
19 25 28 13 15 11 20 21 23 20 18 17 21 23 24 24 24 24 26 26 25 26 25 24 23 24 27 26 25 25 26 26 27 29 28 27 31 35 39 42 44 44 42 40
39 34 14 13 12 11 11 10 16 16 15 16 17 18 19 21 21 22 21 22 23 23 22 22 23 24 24 25 24 24 26 28 29 30 29 29 28 30 35 38 40 42 41 43
21 28 18 14 11 11 7 8 12 15 13 10 12 14 15 17 17 17 17 18 18 18 18 19 21 22 22 22 23 23 26 29 31 30 29 27 27 28 29 31 36 38 39 39
11 21 24 26 28 26 16 14 15 16 16 11 8 10 12 13 13 13 13 13 13 13 14 15 16 17 18 18 20 22 24 25 27 29 29 28 28 30 32 35 38 40 39 38
16 29 21 23 26 18 15 18 20 19 15 13 9 9 10 12 9 10 9 9 8 8 9 11 11 12 14 16 19 19 19 21 22 24 26 27 27 27 30 31 31 33 35 40
13 20 19 14 18 16 14 21 24 21 18 13 11 11 10 9 11 7 6 3 4 5 5 5 6 6 8 11 13 14 16 17 19 19 20 22 23 24 24 25 26 26 29 33
17 15 16 24 31 23 21 24 24 23 22 18 14 11 9 9 9 7 5 4 4 3 2 0 1 2 5 5 6 7 10 12 13 14 13 13 16 18 18 18 18 19 21 24
31 15 14 14 16 22 20 20 20 22 22 19 15 13 11 10 11 10 9 6 7 9 8 8 9 7 7 7 7 8 6 6 5 5 5 7 7 8 9 10 11 13 15 18
21 19 14 15 14 15 15 15 17 20 20 20 18 16 15 15 16 16 16 13 14 16 14 13 16 12 13 14 14 13 13 11 9 9 8 6 4 3 4 5 7 10 13 17
22 22 19 18 22 21 21 21 24 25 25 24 25 23 22 21 23 24 24 20 20 23 22 21 20 19 19 20 21 20 20 21 20 18 17 16 15 13 12 12 12 13 17 19
19 23 24 23 23 25 29 29 30 30 30 30 33 32 30 30 31 31 30 29 30 32 31 27 26 25 25 27 28 29 29 29 30 30 29 28 26 24 22 20 19 19 20 21
29 22 21 22 25 28 32 34 36 39 36 37 40 40 39 38 37 39 37 38 38 40 38 34 32 34 34 33 34 36 37 39 39 40 39 37 36 34 31 29 27 27 26 26
34 31 28 29 31 30 34 38 42 46 45 42 44 45 45 44 44 44 45 48 46 44 42 39 39 39 38 40 39 41 43 46 47 47 47 47 45 42 40 38 36 34 33 33
41 39 38 39 41 44 42 45 48 50 51 50 49 50 51 52 52 51 49 52 52 48 45 45 47 46 45 42 46 48 49 51 52 52 53 52 51 50 48 46 44 42 40 38
48 47 50 51 53 56 57 59 59 58 59 59 60 59 59 60 61 63 66 58 55 53 51 50 51 51 51 51 50 51 53 53 55 57 57 57 56 55 53 52 50 47 46 44
55 59 61 58 57 64 73 70 68 65 63 62 62 61 66 70 70 62 63 64 61 58 56 54 54 53 51 54 54 54 54 56 56 55 58 59 59 58 57 56 54 51 49 48
67 69 69 74 77 78 76 73 71 71 72 73 74 70 67 64 67 72 66 65 63 61 60 58 56 54 52 52 52 54 54 55 56 58 58 60 62 61 59 56 55 53 51 50
69 71 71 70 70 71 72 73 78 79 80 82 79 77 76 72 70 70 69 66 66 65 65 63 59 55 54 50 49 48 49 51 53 58 58 58 59 59 59 56 55 53 51 51
68 65 65 68 68 72 77 79 83 87 83 84 87 84 83 82 78 74 73 71 68 66 65 62 57 53 48 45 45 47 50 53 55 56 56 56 55 53 52 52 52 49 48 48
Wind_Direction
17 6 14 10 10 24 26 20 20 11 8 351 6 18 27 31 30 30 32 37 44 47 57 76 79 83 90 97 119 159 177 209 253 294 311 311 309 310 301 295 291 285 287 287
19 31 32 20 16 21 21 24 9 357 354 10 30 34 31 32 32 35 37 41 48 51 61 79 87 90 97 98 106 121 182 247 250 283 314 318 318 314 311 305 299 296 293 290
21 23 18 29 37 38 36 38 32 24 15 29 28 30 31 34 37 38 38 41 46 50 69 80 90 97 95 106 123 134 149 182 209 216 232 330 324 323 314 307 304 302 300 295
14 16 23 35 42 37 29 29 33 22 18 23 27 33 37 39 39 38 39 44 49 61 69 80 93 100 98 101 117 133 156 178 212 223 212 42 6 331 324 317 311 305 304 301
12 11 12 31 40 37 36 33 42 33 28 31 37 38 33 43 48 44 49 50 56 65 69 81 92 95 96 97 105 108 128 156 205 180 110 62 31 10 339 326 317 310 307 305
8 10 16 29 37 43 44 34 43 38 34 36 41 32 33 47 51 53 54 54 57 63 70 79 85 88 89 86 98 104 103 150 136 115 68 52 42 32 15 351 331 320 312 311
1 6 11 25 36 48 27 25 31 35 37 40 35 36 41 50 53 53 53 55 59 65 70 76 80 80 79 84 91 93 99 116 80 60 69 65 45 34 34 24 3 337 324 317
9 10 15 43 38 29 25 26 29 33 35 34 34 37 41 47 51 53 53 56 60 63 68 72 76 73 74 81 88 89 85 99 105 88 56 55 49 41 35 33 22 3 337 323
3 1 2 24 6 6 18 18 22 23 28 32 32 36 42 46 50 50 53 56 61 62 65 69 70 73 72 80 84 80 81 90 92 98 96 72 34 25 26 29 29 17 4 340
342 356 330 298 285 325 354 351 8 15 20 32 29 37 42 45 48 49 55 56 61 64 62 59 64 74 74 77 79 78 81 85 86 93 97 101 91 50 16 14 13 20 22 7
321 263 312 321 344 340 339 352 356 9 15 22 30 32 38 40 44 50 53 59 61 60 60 66 69 71 75 80 79 79 89 90 86 87 91 96 102 100 87 45 9 5 10 14
281 349 356 356 6 19 26 11 11 13 13 16 24 22 33 30 38 49 53 59 60 59 63 72 77 80 79 82 82 86 93 93 90 87 87 92 96 101 100 95 76 48 26 12
324 347 350 357 2 8 7 10 13 10 6 8 12 17 20 18 29 43 48 54 57 58 71 75 83 87 77 75 83 86 94 106 96 89 85 87 92 97 88 100 102 95 81 42
270 321 315 325 346 359 359 2 5 5 6 7 7 10 6 3 19 23 18 30 53 54 66 78 93 111 105 89 95 92 98 110 113 106 91 82 88 92 93 90 90 92 82 71
290 272 266 333 344 349 352 356 357 358 2 4 3 350 350 343 337 324 335 343 353 349 318 279 248 196 140 107 115 107 109 115 120 117 101 92 84 80 83 86 80 74 65 55
328 293 284 284 314 337 342 344 344 346 353 353 348 338 320 310 312 314 316 310 316 295 285 270 258 241 209 199 197 191 177 168 149 137 95 100 92 76 63 60 52 44 37 31
300 301 306 298 288 305 318 327 329 335 339 336 325 329 327 314 311 307 305 289 286 289 287 277 263 260 240 232 235 237 233 237 241 239 230 224 229 275 323 339 346 353 358 1
270 282 293 298 311 316 315 313 316 318 319 319 323 320 312 310 300 298 294 297 293 293 285 275 277 273 256 253 251 260 256 254 261 257 252 256 254 262 279 288 299 310 324 331
289 284 273 269 285 305 315 315 310 308 310 313 320 312 302 296 296 298 303 297 291 289 283 277 275 271 267 260 257 265 264 261 258 265 263 260 261 260 264 272 280 288 299 309
309 296 286 275 288 295 304 312 315 315 313 316 315 314 307 301 299 298 298 289 285 286 287 283 278 270 269 269 260 266 264 262 261 262 264 262 262 261 260 263 271 279 285 293
306 305 300 300 300 301 305 312 318 316 314 315 314 312 308 305 307 304 303 298 289 288 286 284 278 277 276 272 270 267 267 263 261 261 262 262 263 262 263 264 268 273 279 285
308 305 304 306 307 308 312 315 317 315 314 312 311 310 310 308 309 306 299 299 303 302 294 287 282 278 275 275 273 271 268 265 264 264 263 262 262 262 263 266 266 271 276 280
310 308 310 311 310 311 315 316 316 314 313 313 313 312 310 308 310 309 307 306 301 302 298 293 289 282 276 275 276 274 269 267 266 264 263 263 262 263 264 265 268 270 273 277
312 312 311 313 314 314 314 316 316 315 315 316 316 316 315 314 312 309 305 306 306 303 300 298 295 290 285 281 279 277 275 272 269 269 267 265 265 265 265 266 267 269 272 275
311 311 312 312 311 310 313 315 316 317 317 316 317 317 316 315 313 316 314 311 309 307 305 302 298 295 291 288 286 281 277 277 273 273 274 271 267 265 264 265 266 267 270 273
308 308 309 310 311 313 314 315 314 315 316 315 316 317 317 317 316 314 314 312 311 310 308 307 304 299 295 289 284 282 280 280 278 276 273 272 270 267 264 263 265 266 267 272
308 310 311 311 313 314 314 314 314 314 315 316 315 317 318 318 317 316 315 315 314 312 311 309 308 304 299 293 289 286 286 285 283 281 280 276 272 268 263 262 264 265 267 270